This is the latest recevied weather packets stored in our database for station/object W2GRK-15. If no packets are shown the sender has not sent any weather packets the latest 10 day(s).
| Time | Temp. | Humidity | Pressure | Rain* | Wind** | Luminosity | Snow |
|---|---|---|---|---|---|---|---|
| 1777640485 | 11.67° C | 64% | 1014.5 hPa | 0 mm | - | 364 W/m² | - |
| 1777640066 | 11.67° C | 66% | 1014.6 hPa | 0 mm | - | 313 W/m² | - |
| 1777640002 | 11.67° C | 66% | 1014.3 hPa | 0 mm | - | 304 W/m² | - |
| 1777639780 | 11.11° C | 67% | 1014.6 hPa | 0 mm | - | 287 W/m² | - |
| 1777639696 | 11.11° C | 67% | 1014.5 hPa | 0 mm | - | 285 W/m² | - |
| 1777639165 | 10.56° C | 68% | 1014.4 hPa | 0 mm | - | 215 W/m² | - |
| 1777639007 | 10.56° C | 69% | 1014.6 hPa | 0 mm | - | 209 W/m² | - |
| 1777638923 | 10.56° C | 69% | 1014.5 hPa | 0 mm | - | 207 W/m² | - |
| 1777638810 | 10.56° C | 69% | 1014.5 hPa | 0 mm | - | 202 W/m² | - |
| 1777638440 | 10.56° C | 69% | 1014.5 hPa | 0 mm | - | 188 W/m² | - |
| 1777638218 | 10.56° C | 70% | 1014.4 hPa | 0 mm | - | 179 W/m² | - |
| 1777638150 | 10.56° C | 70% | 1014.3 hPa | 0 mm | - | 178 W/m² | - |
| 1777638021 | 10.56° C | 72% | 1014.2 hPa | 0 mm | - | 171 W/m² | - |
| 1777637844 | 10° C | 71% | 1014.2 hPa | 0 mm | - | 161 W/m² | - |
| 1777637780 | 10° C | 72% | 1014.4 hPa | 0 mm | - | 160 W/m² | - |
| 1777637735 | 10° C | 72% | 1014.4 hPa | 0 mm | - | 159 W/m² | - |
| 1777637538 | 10° C | 71% | 1014.5 hPa | 0 mm | - | 150 W/m² | - |
| 1777637119 | 10° C | 73% | 1014.5 hPa | 0 mm | - | 100 W/m² | - |
| 1777637027 | 10° C | 73% | 1014.6 hPa | 0 mm | - | 99 W/m² | - |
| 1777635267 | 8.89° C | 76% | 1014.5 hPa | 0 mm | - | 59 W/m² | - |
| 1777634848 | 8.89° C | 77% | 1014.1 hPa | 0 mm | - | 53 W/m² | - |
| 1777634784 | 8.89° C | 78% | 1014.3 hPa | 0 mm | - | 53 W/m² | - |
| 1777634542 | 8.33° C | 79% | 1014.4 hPa | 0 mm | - | 49 W/m² | - |
| 1777634123 | 7.78° C | 81% | 1014.3 hPa | 0 mm | - | 46 W/m² | - |
| 1777633946 | 7.78° C | 83% | 1014.2 hPa | 0 mm | - | 44 W/m² | - |
* Rain latest hour (hover to see other rain measurements)
** Current wind speed in m/s (hover to see current wind gust speed)